Theta_e
331 329 329 329 329 329 328 327 327 328 329 328 329 329 329 328 328 328 327 326 325 326 326 326 326 327 327 328 328 328 329 328 329 329 329 329 329 330 329 329 329 329 330 331 332 330 328 327 329 330 331 330 329 330 331 330 328 327 328 329 328 327 322 313 306 305 304 302 301 301 301 300 300 300
330 329 329 329 329 329 328 327 327 327 328 329 329 328 329 329 328 328 328 328 326 326 326 326 327 326 327 327 327 328 328 328 328 328 328 328 329 329 329 329 329 328 329 330 331 331 328 327 328 329 330 330 329 330 331 330 327 327 328 328 329 328 323 315 309 306 304 302 301 301 300 300 300 300
330 329 329 328 328 328 327 327 328 328 328 328 328 327 328 328 327 327 328 328 326 326 327 327 327 326 326 327 327 327 327 327 327 328 328 328 328 328 329 329 329 329 329 330 331 330 328 327 328 327 328 330 331 331 331 330 327 327 328 328 329 328 325 319 313 308 304 302 301 301 300 300 300 300
329 329 328 328 328 327 327 327 327 327 327 327 326 326 326 327 327 327 327 327 326 325 326 325 326 326 326 326 326 326 327 326 327 327 327 327 327 328 328 329 329 329 328 329 330 329 328 328 329 328 327 329 330 329 330 330 328 327 328 328 329 328 326 323 317 311 305 302 301 301 300 300 300 300
328 329 328 327 327 327 327 327 327 326 326 325 326 325 326 326 326 326 327 326 325 323 323 323 324 324 325 326 326 326 326 326 326 326 326 326 327 327 327 328 328 328 328 329 330 330 330 329 330 330 328 328 328 327 328 329 329 327 328 328 328 328 326 324 321 314 307 302 301 301 300 300 300 300
330 330 329 328 327 327 326 327 327 326 326 326 326 326 326 325 325 325 326 326 325 323 321 321 321 322 323 324 325 326 326 324 323 323 322 323 324 326 327 327 328 328 329 329 329 330 331 330 331 331 330 329 329 328 327 329 329 328 327 328 328 328 327 325 323 317 309 302 301 300 300 300 300 300
327 327 328 328 328 328 328 328 327 327 327 327 327 327 326 324 324 325 325 326 325 324 321 320 320 319 318 319 320 322 323 324 323 322 320 319 321 323 326 327 327 328 328 328 329 329 330 331 331 331 330 329 330 328 328 329 328 326 327 327 328 328 327 326 324 320 312 304 301 300 300 300 300 300
322 321 323 324 325 327 328 328 328 328 328 328 328 328 326 325 325 326 326 325 325 324 322 319 318 317 315 315 315 315 317 319 321 321 319 318 319 321 324 326 327 326 326 327 327 328 329 330 330 331 330 329 330 331 331 329 326 324 325 326 327 328 328 327 325 321 314 306 301 300 300 300 300 299
320 320 321 323 324 326 328 328 327 327 327 328 329 328 327 326 326 326 326 325 324 323 321 318 315 314 313 312 311 311 311 312 314 314 314 314 317 321 323 324 325 325 325 325 326 326 327 328 329 329 329 329 329 331 332 330 326 323 323 324 325 326 327 326 325 323 316 307 301 300 300 300 300 299
324 323 323 323 323 323 324 325 324 324 325 327 328 328 327 327 326 326 324 323 321 319 317 314 312 311 311 310 310 310 310 309 309 309 309 310 314 319 322 323 323 324 325 325 325 326 326 327 327 328 329 329 330 330 330 330 327 323 323 324 325 326 325 325 324 323 318 310 302 300 300 299 299 299
325 324 322 321 320 320 320 323 323 323 324 327 328 328 326 325 325 324 321 319 316 314 312 311 310 310 310 310 310 310 310 310 309 309 309 308 309 313 317 320 321 322 323 324 325 325 326 326 326 326 327 328 330 330 328 329 328 325 324 325 326 326 325 323 322 322 318 312 304 300 299 299 299 299
325 323 321 320 320 320 321 323 324 324 325 327 327 326 325 323 321 319 316 313 312 311 311 310 310 310 309 309 309 310 311 312 311 311 310 310 311 312 313 316 319 320 320 322 324 325 325 324 324 325 325 326 328 329 329 330 329 326 325 325 325 325 324 324 324 322 318 312 306 302 299 299 299 299
325 323 322 323 321 320 322 325 325 325 326 326 325 325 323 320 316 314 312 311 311 311 310 310 309 309 309 308 309 310 312 314 314 313 312 313 315 315 314 315 318 320 321 323 324 323 322 322 323 323 324 324 326 327 328 329 328 326 325 324 322 322 323 323 324 323 318 311 307 304 299 298 299 298
324 324 324 325 323 321 323 326 326 325 325 325 325 324 321 316 313 312 311 311 311 310 310 310 309 309 308 308 308 309 312 314 315 315 315 314 315 317 316 316 317 320 322 323 323 322 321 321 322 323 323 324 325 326 327 328 328 327 326 324 322 322 322 321 320 319 315 310 308 306 300 298 298 298
326 326 327 327 327 324 324 325 326 325 324 324 324 322 318 314 312 311 312 312 311 310 309 310 310 309 309 308 308 309 310 312 314 316 316 316 316 316 317 317 318 319 320 321 322 322 321 321 320 320 321 322 323 324 326 327 327 326 326 326 324 322 322 321 320 318 314 309 306 305 300 297 298 298
328 328 328 328 328 327 326 326 325 325 324 323 323 320 316 313 311 312 312 312 310 310 310 310 310 310 310 309 309 309 309 310 312 314 316 316 316 316 316 317 317 317 318 319 320 321 321 320 319 318 318 318 320 323 325 326 325 325 326 326 324 321 321 321 321 320 317 311 307 303 298 297 297 297
328 329 329 328 328 327 327 326 325 324 324 322 321 318 315 312 311 312 312 311 310 310 310 310 310 311 311 310 310 310 309 309 311 312 313 314 315 315 315 315 315 316 316 317 317 318 318 318 318 317 317 316 317 321 325 325 324 324 325 324 323 321 320 320 319 319 318 315 309 303 298 297 297 297
327 328 328 328 328 327 327 325 324 324 323 322 320 317 314 312 312 312 312 311 310 310 310 309 309 311 311 311 311 310 310 310 310 311 312 313 313 313 313 313 314 315 315 316 316 316 316 316 316 316 316 315 316 318 322 324 323 323 323 323 323 321 319 318 316 316 317 314 309 303 299 297 297 298
325 325 326 326 327 327 326 324 323 322 322 321 320 317 313 312 312 313 312 311 310 310 310 309 309 310 311 312 312 311 310 310 310 310 311 311 311 312 312 313 313 315 315 315 315 315 315 315 315 315 315 315 315 317 319 322 322 322 322 322 322 321 319 317 314 314 316 314 309 306 303 299 297 298
323 323 325 326 327 326 326 324 323 322 321 321 320 316 313 312 312 312 312 311 310 310 310 310 310 309 310 311 312 312 311 310 310 310 310 310 311 311 311 312 313 314 315 314 314 313 313 313 314 314 314 315 315 315 317 320 322 322 322 321 320 320 319 317 314 313 315 315 313 311 311 307 301 298
323 323 324 326 326 326 325 324 323 322 321 320 319 316 313 311 312 312 312 311 311 310 310 311 310 309 309 309 311 312 312 311 310 310 309 310 310 310 310 310 311 313 313 313 312 312 312 313 313 313 314 314 315 315 316 317 319 321 322 321 320 320 319 317 315 313 313 314 314 312 313 313 307 301
325 324 324 325 326 325 325 324 323 322 321 320 319 316 312 311 312 312 312 312 311 311 311 311 311 310 308 308 309 311 312 311 310 310 310 309 309 309 309 310 310 311 311 311 311 312 313 313 313 313 314 314 314 315 315 316 316 318 320 321 319 319 319 318 316 314 312 312 313 311 311 311 310 306
326 325 325 325 325 325 324 324 323 322 321 320 319 316 312 311 312 313 313 312 311 311 312 312 312 311 309 308 307 309 310 311 310 310 310 309 309 308 309 309 309 309 309 310 312 312 313 313 313 315 316 314 313 314 314 316 317 317 318 319 319 319 318 318 317 314 311 310 311 310 309 309 309 307
327 326 325 324 324 324 324 324 324 323 321 320 319 316 313 311 312 313 313 312 312 312 312 312 312 311 310 308 307 306 308 310 310 311 310 310 309 308 308 309 309 308 309 312 313 312 312 312 312 313 314 314 314 314 314 314 316 317 317 318 318 318 318 318 317 314 310 308 308 308 308 306 305 304
327 327 326 325 324 324 324 324 323 323 322 320 318 317 315 312 312 313 313 313 312 312 312 312 312 312 310 308 307 306 306 308 309 310 310 310 309 307 307 309 308 308 311 313 313 311 310 310 309 310 310 310 311 312 314 314 315 316 317 318 318 318 318 318 318 316 312 308 306 306 305 303 302 302
326 325 326 325 325 325 325 324 323 323 322 320 318 318 317 313 311 312 313 313 313 312 312 312 312 312 310 308 307 307 308 308 308 308 308 308 307 306 306 308 309 310 312 313 312 311 310 309 308 308 308 308 309 309 311 313 314 315 315 316 317 318 318 317 316 315 312 308 306 305 304 302 300 300
324 325 325 326 326 325 325 324 324 323 322 320 319 319 318 314 312 313 313 313 313 313 312 312 312 312 310 308 307 308 310 310 309 308 306 306 305 305 306 308 310 311 312 312 312 311 310 309 308 308 307 307 307 307 308 310 312 314 314 315 316 317 317 317 316 315 312 309 306 304 303 301 300 299
323 324 325 326 326 326 325 324 323 322 321 320 319 319 318 314 312 312 314 313 313 313 312 312 312 312 310 308 307 309 310 311 310 308 305 304 304 304 306 309 312 312 312 312 312 311 310 309 308 307 306 306 307 307 308 308 309 311 313 315 315 316 316 317 317 316 314 311 307 305 304 303 301 300
323 324 326 327 326 325 325 325 324 323 321 319 318 318 317 315 312 312 313 314 313 312 312 311 312 312 310 308 307 309 310 310 309 306 304 303 303 304 307 310 312 313 312 312 312 311 310 308 307 306 306 305 306 307 308 308 309 309 311 313 314 315 315 316 316 316 315 312 310 308 307 306 304 303
325 325 325 326 326 325 325 325 324 323 320 319 318 317 316 314 312 312 313 313 313 312 311 311 312 312 310 307 308 310 310 309 307 304 303 302 303 306 309 311 313 313 313 313 313 311 310 308 307 306 305 304 305 307 308 309 310 309 310 311 312 313 314 315 315 316 315 313 310 308 306 305 304 303
325 325 323 323 323 324 325 325 324 323 320 319 318 317 315 313 311 311 312 312 312 311 311 312 313 313 310 307 308 310 310 308 305 304 304 305 306 308 311 312 312 313 313 313 312 311 309 307 306 304 303 303 305 307 308 309 309 309 309 309 310 311 313 314 314 315 314 312 309 305 302 301 302 302
325 324 323 322 321 322 323 324 324 323 321 319 318 317 315 313 311 311 311 311 311 312 312 312 314 313 310 307 308 310 309 307 305 306 306 307 309 310 312 312 312 312 312 312 312 310 309 307 305 303 301 302 305 307 308 308 309 309 309 309 309 310 311 312 313 313 313 312 311 307 303 301 300 301
324 324 324 322 320 321 323 324 324 323 322 321 319 318 315 312 311 310 310 311 312 312 312 313 314 314 310 307 308 310 309 308 307 308 309 309 310 311 312 312 311 310 309 309 310 310 309 306 305 303 301 301 302 305 307 308 308 308 309 309 309 310 310 310 311 312 312 312 312 311 307 304 301 300
324 323 323 322 320 319 322 323 323 323 322 321 321 319 317 314 312 311 311 312 313 314 314 314 315 314 310 307 307 309 310 310 310 311 311 311 311 312 311 310 309 308 308 307 309 310 309 307 305 303 301 300 300 302 304 305 307 307 308 308 309 310 310 310 309 310 311 312 312 311 310 309 306 303
323 323 323 322 320 319 320 322 323 323 323 322 321 320 319 317 315 314 314 315 316 316 316 316 316 315 311 308 307 308 310 311 312 312 312 312 311 311 311 310 308 308 308 308 309 310 309 307 305 304 302 300 299 299 301 303 304 306 307 308 309 310 310 310 310 310 310 311 311 311 311 311 310 308
322 322 322 322 321 320 320 320 321 322 323 322 321 320 320 319 318 318 318 318 318 318 317 316 316 315 311 308 307 308 310 311 312 312 311 311 311 311 310 310 309 309 308 308 309 309 308 307 305 304 303 301 299 298 300 302 303 305 306 307 308 309 310 310 310 311 311 311 311 311 311 312 312 311
321 322 322 321 320 319 319 319 320 321 322 323 322 321 320 320 319 319 319 319 318 318 317 317 317 315 311 309 307 308 310 311 311 311 311 311 311 310 310 310 310 309 309 308 309 309 308 307 305 304 303 301 300 299 300 301 303 305 305 306 307 308 309 310 310 310 311 311 311 311 312 313 312 311
320 320 321 321 320 319 318 319 320 320 320 321 322 321 320 320 320 319 319 318 316 316 316 317 317 315 312 309 308 308 310 311 312 311 311 311 311 311 311 311 311 310 310 309 308 308 307 306 305 305 303 301 300 300 301 302 304 305 305 306 307 308 308 309 309 310 311 311 312 312 312 312 311 311
320 320 320 321 321 320 320 320 320 320 319 320 320 320 320 320 319 317 316 314 313 314 315 316 316 314 311 310 308 308 309 311 312 312 312 312 311 311 311 311 311 311 311 310 309 308 307 306 306 305 304 302 301 301 303 304 305 305 305 305 306 307 307 308 309 310 311 311 312 312 311 310 309 309
320 321 321 321 321 321 321 321 321 321 320 320 319 319 319 318 316 314 313 313 313 315 315 315 314 313 311 310 308 308 309 310 311 311 312 312 311 311 311 311 311 311 311 310 309 308 307 307 306 305 304 302 301 301 303 305 305 305 304 305 305 306 307 307 308 309 309 310 310 310 309 309 308 308
319 320 320 320 321 321 321 321 321 321 321 320 320 319 317 315 314 313 313 313 314 314 314 313 312 312 311 310 309 308 309 310 311 311 311 311 311 311 311 311 311 311 311 310 309 308 307 307 306 305 304 302 301 301 303 304 304 304 304 305 305 306 307 307 307 308 309 309 308 308 308 308 307 307
317 319 319 320 320 320 320 321 321 321 320 320 319 318 316 314 313 313 313 314 314 314 314 313 312 312 311 310 308 308 309 311 311 311 311 311 311 311 311 311 311 311 311 310 309 309 308 307 306 305 304 302 301 301 303 304 304 304 304 304 305 306 306 307 307 308 308 308 307 307 307 306 306 306
316 317 318 319 319 320 320 319 320 321 320 320 318 317 316 314 314 314 314 314 314 314 314 313 312 311 311 310 309 308 309 311 311 311 311 311 311 311 311 311 311 311 311 310 310 309 308 307 306 305 304 302 301 301 303 304 303 303 303 304 304 305 305 306 307 307 307 307 306 306 306 306 306 306
315 315 317 317 318 319 319 319 320 320 320 320 319 318 316 315 315 315 315 315 314 314 314 314 313 312 311 310 309 308 309 310 311 311 311 311 311 311 311 311 312 311 310 310 309 309 308 307 306 305 304 301 300 301 303 303 303 303 303 303 303 304 304 305 305 305 306 305 305 305 305 305 305 306
315 315 315 315 316 317 318 319 320 321 320 320 320 319 318 317 316 316 316 315 315 315 314 314 314 313 311 310 309 309 309 309 310 311 311 311 311 311 311 311 312 311 310 310 309 308 307 307 306 305 303 301 300 301 303 303 302 302 302 302 303 303 304 304 304 304 304 304 304 305 304 304 304 304
Wind_Speed
8 8 8 8 7 7 7 7 7 7 7 7 8 8 8 9 11 12 14 14 12 10 11 12 12 11 11 11 11 12 12 13 13 13 13 13 13 14 14 14 14 13 12 12 12 11 10 9 9 9 9 9 8 8 8 8 7 7 6 6 7 6 6 6 6 6 6 5 4 3 2 2 3 4
9 9 9 8 7 7 7 7 8 8 7 7 7 7 8 9 10 11 14 15 14 12 13 14 14 14 13 13 13 13 14 15 15 15 15 14 14 14 14 14 14 12 11 12 12 11 10 9 9 9 9 9 8 8 9 9 8 7 7 7 7 6 5 6 6 6 6 5 4 3 1 1 3 3
11 10 10 9 9 9 9 8 8 8 7 7 7 7 8 9 10 11 13 16 16 15 15 15 15 16 16 15 15 15 15 16 16 16 16 15 14 14 13 13 13 12 11 12 11 10 10 9 9 9 9 9 8 8 9 9 9 8 7 7 7 6 5 5 6 6 6 4 3 2 1 1 3 3
12 11 10 10 9 9 9 8 8 8 8 8 9 8 9 9 11 12 13 16 16 15 15 16 16 17 17 17 17 16 15 14 15 16 16 16 16 15 15 14 14 12 11 12 11 11 11 10 10 9 10 10 9 9 10 11 10 9 8 8 7 6 5 4 5 6 5 4 3 2 1 1 2 4
12 11 9 9 9 8 9 9 9 8 9 9 9 9 9 10 11 12 12 15 16 14 14 15 16 17 18 17 16 17 16 14 14 14 15 16 16 17 17 16 15 13 12 12 12 12 13 12 11 10 10 11 11 11 12 12 11 10 9 9 8 6 5 4 4 5 5 4 3 2 2 1 2 4
11 10 9 9 9 9 9 10 10 9 9 9 9 9 9 10 11 12 12 13 15 16 16 16 17 17 18 18 16 16 17 16 15 14 14 15 15 16 16 15 15 14 13 12 12 12 13 13 13 12 11 12 12 13 13 13 13 12 11 10 8 7 5 3 4 4 4 4 3 2 2 2 2 4
9 10 10 9 9 10 11 11 11 11 10 10 10 10 10 10 11 12 12 13 15 18 20 19 19 19 20 20 19 18 18 18 19 18 17 16 15 16 16 15 14 14 13 13 12 12 13 14 14 13 12 12 13 15 15 14 14 13 12 11 10 8 7 4 3 4 4 3 2 2 2 2 3 4
11 11 12 11 11 12 12 12 12 12 12 12 11 11 11 11 12 12 13 14 16 19 21 22 22 23 22 23 23 22 21 20 20 21 20 19 17 16 16 16 15 14 14 14 13 12 12 13 13 13 12 12 14 17 17 16 16 15 13 12 11 9 8 5 3 3 3 3 2 2 2 3 3 4
13 14 14 14 13 13 12 12 12 13 13 13 12 12 12 12 12 13 14 16 18 20 22 23 24 24 24 24 24 25 24 22 21 21 20 19 18 16 15 15 16 15 15 14 13 12 12 12 13 14 14 14 15 18 19 17 16 16 15 13 12 11 9 7 5 4 3 2 2 3 3 3 4 5
13 14 14 14 14 15 15 13 13 13 13 14 13 12 12 12 13 15 16 18 19 20 21 22 23 24 24 24 23 23 23 24 23 22 20 18 17 16 14 13 14 14 14 14 13 12 12 12 13 14 15 16 16 18 19 17 16 18 18 15 14 13 11 9 6 5 4 3 3 3 4 4 4 5
12 12 12 13 15 17 16 14 12 12 13 14 13 12 12 13 15 16 18 18 18 19 19 19 20 21 22 22 21 21 21 21 21 22 22 19 17 17 17 15 14 14 14 15 14 12 12 12 11 12 13 15 17 18 18 17 17 19 20 17 16 16 14 10 8 7 6 4 4 4 4 5 5 6
13 13 14 15 17 17 15 13 12 11 12 13 12 11 13 14 15 16 16 16 16 16 16 16 17 18 19 19 18 18 18 18 17 18 20 20 17 15 16 16 16 16 16 15 13 11 11 10 10 10 12 13 14 15 17 20 20 20 19 18 19 19 16 12 11 9 8 6 4 5 5 5 6 6
14 14 15 15 16 15 14 13 11 11 11 12 12 13 13 13 13 14 14 13 12 12 12 12 13 15 16 16 17 16 16 17 17 16 17 18 17 16 15 14 14 15 15 13 10 9 9 8 7 9 10 11 12 13 16 20 21 19 18 19 20 20 17 13 12 10 9 8 6 6 6 6 6 7
15 15 16 15 15 15 15 13 12 12 12 13 14 14 13 12 12 12 11 10 9 9 9 10 12 14 15 16 16 16 15 16 16 16 16 16 16 16 16 14 13 13 13 11 9 7 7 6 6 7 8 9 12 12 14 18 21 18 17 18 20 20 17 15 13 10 10 10 9 7 7 7 7 7
16 17 17 16 16 16 15 14 13 14 14 15 15 14 12 12 12 11 9 8 7 8 9 10 12 14 15 16 15 14 14 14 15 16 16 16 16 15 15 14 14 14 14 13 12 10 10 9 8 9 9 9 9 8 8 16 22 20 15 15 18 21 21 19 15 13 12 13 11 9 9 8 7 8
17 18 17 16 16 16 16 15 15 15 15 16 15 13 12 11 11 9 8 7 7 8 9 11 13 14 15 16 15 15 14 14 14 14 14 15 15 15 15 15 15 15 16 16 16 15 15 15 14 13 12 11 9 6 5 12 22 22 16 12 15 20 21 20 18 16 15 14 12 10 10 9 8 8
17 17 17 17 16 16 16 16 15 15 16 15 14 12 12 11 10 9 8 7 7 8 10 12 13 14 15 16 16 16 16 15 14 14 14 14 15 15 16 16 16 16 16 18 19 19 19 19 17 16 14 13 11 7 5 9 17 21 17 12 12 16 18 18 18 17 16 15 14 12 11 10 9 9
17 17 17 17 16 16 16 15 14 14 14 14 14 13 12 12 11 10 8 7 6 7 9 12 13 14 15 16 16 16 16 16 15 15 15 16 16 16 17 17 16 16 15 16 17 18 18 17 17 15 13 12 11 9 8 7 11 15 16 13 12 14 15 16 17 17 15 15 15 14 13 11 10 9
17 17 17 17 16 16 15 14 13 13 13 13 14 14 13 13 12 11 8 7 6 7 9 11 13 14 15 16 16 16 16 16 16 16 16 16 17 18 18 17 16 15 14 14 15 16 16 15 15 14 13 11 9 9 9 9 9 10 13 15 14 13 13 14 15 16 16 16 16 16 15 13 12 10
17 17 17 17 16 15 14 14 14 13 13 14 15 15 14 14 13 11 9 7 7 7 9 11 13 15 15 16 16 16 16 16 16 16 16 16 17 18 18 17 15 14 14 15 16 17 16 15 14 13 11 10 9 8 9 10 11 10 11 14 17 16 14 13 14 16 18 18 17 17 16 15 15 14
17 17 17 16 16 15 15 16 15 14 14 16 16 16 16 15 15 13 10 8 8 8 9 11 14 15 16 16 16 16 16 17 16 16 16 16 17 18 18 17 16 14 15 16 16 15 14 12 12 11 10 9 7 7 8 10 12 12 11 13 16 16 15 14 14 15 17 18 17 17 16 16 18 18
18 17 17 16 16 16 16 17 16 15 16 17 17 17 17 17 17 14 10 9 10 10 10 12 14 16 17 17 17 17 17 17 17 16 16 16 17 18 18 17 16 15 15 16 15 14 12 11 11 11 11 10 7 6 6 8 11 13 13 12 13 14 14 14 14 15 17 17 17 17 17 18 19 20
19 18 17 17 17 16 16 17 17 16 17 19 18 17 18 20 19 15 11 11 12 11 11 13 15 17 18 18 18 18 17 17 17 17 17 17 18 18 18 16 16 15 15 14 14 13 11 10 10 10 10 11 10 8 6 6 9 13 14 13 11 11 12 14 15 15 17 17 17 18 19 18 18 19
19 19 18 17 17 16 16 18 19 18 18 20 19 18 20 21 19 15 13 14 13 12 13 14 16 18 20 20 19 18 18 18 18 18 18 18 18 19 18 15 14 14 13 12 12 11 10 10 10 9 10 11 12 11 9 7 7 10 12 13 13 13 14 15 15 16 17 18 18 19 19 18 18 19
20 20 19 18 17 17 17 19 21 20 19 20 21 21 21 20 19 17 16 16 15 14 14 15 17 19 21 22 20 18 17 17 18 19 20 21 20 20 18 15 13 11 9 9 9 9 10 11 11 10 11 12 13 13 12 10 8 9 11 12 14 17 18 19 19 19 19 19 20 20 20 19 19 19
21 21 20 19 17 17 18 20 22 21 20 21 23 22 20 20 21 20 18 17 16 15 15 16 18 20 21 22 21 18 15 15 17 19 21 22 21 20 17 14 12 9 7 7 8 9 10 12 13 13 14 14 14 15 14 13 11 11 12 13 13 15 18 21 22 21 22 23 23 23 21 20 20 19
19 20 20 18 17 18 20 21 22 23 23 23 24 23 21 22 23 22 21 19 18 17 16 17 18 20 21 22 21 18 15 15 17 18 19 20 20 19 16 13 10 8 7 7 9 10 12 14 15 16 17 16 16 16 16 15 15 14 13 14 14 14 16 18 20 20 21 23 25 25 23 22 22 22
18 19 19 18 18 20 22 22 21 23 24 25 24 23 22 23 25 25 23 20 19 18 17 17 19 20 21 22 20 17 16 18 19 19 17 17 18 17 14 12 10 8 7 7 9 11 13 15 17 18 19 19 19 18 17 16 16 18 17 16 16 16 16 17 19 20 21 23 24 26 26 26 27 26
16 17 17 18 19 21 21 21 20 22 24 25 25 24 24 25 26 26 24 22 20 19 18 18 19 20 21 21 20 18 18 20 20 18 14 14 15 14 12 10 10 9 8 8 9 12 14 16 18 20 21 22 21 20 19 17 15 17 20 20 18 17 17 17 19 20 22 24 24 26 27 29 29 29
17 17 17 19 21 23 23 22 22 22 24 25 25 26 26 27 28 27 25 23 21 20 19 19 19 20 21 21 19 19 20 20 19 15 11 11 12 12 10 9 10 10 9 9 10 12 15 17 19 21 22 22 21 19 18 17 16 15 18 21 21 21 19 19 19 22 25 27 27 27 28 30 31 30
19 19 19 20 23 25 26 25 23 23 25 26 26 27 28 28 29 28 26 24 22 21 20 19 19 20 20 20 19 19 20 19 15 11 8 8 9 9 9 9 9 9 10 10 10 13 15 17 19 21 21 21 20 17 15 15 15 15 16 18 21 23 23 21 20 21 24 27 29 30 31 33 34 34
18 19 19 21 23 26 28 27 26 27 28 28 27 28 29 29 29 28 27 26 24 23 20 19 19 20 20 19 18 18 18 14 10 8 6 6 7 8 9 9 9 8 9 9 10 13 16 17 19 20 20 20 19 17 15 14 14 14 15 16 18 21 25 25 23 21 21 24 28 31 33 35 36 36
15 17 20 22 24 27 29 30 29 30 30 29 28 28 28 29 29 29 29 27 25 23 20 19 19 20 19 18 17 16 14 10 7 6 4 5 6 7 8 8 8 8 8 8 9 12 16 17 18 19 19 19 19 18 17 17 16 14 14 15 16 18 20 23 23 23 22 23 25 29 33 36 36 37
16 18 21 23 24 27 30 30 30 31 31 31 30 28 28 28 29 29 29 27 25 22 20 20 20 20 19 17 16 15 12 8 6 6 5 6 7 7 8 8 8 8 9 9 10 13 15 16 17 18 18 19 19 18 18 18 18 15 14 16 17 17 17 18 20 22 23 23 23 26 30 33 34 36
18 19 22 23 24 26 29 30 30 30 31 31 30 29 28 28 28 28 27 25 23 21 21 21 21 20 19 18 17 15 13 10 9 8 7 8 8 8 8 9 9 10 11 11 12 14 16 16 16 17 18 19 18 18 16 16 16 15 14 15 17 17 17 18 19 20 22 24 24 26 28 30 32 35
19 20 22 23 23 25 28 30 30 30 30 30 30 29 28 27 27 26 24 22 21 21 21 21 21 21 20 19 18 16 15 13 12 11 10 9 10 10 10 11 10 11 11 12 12 14 16 17 17 18 20 20 20 19 16 13 13 14 14 16 16 16 17 19 21 23 24 25 26 27 27 28 29 31
21 21 22 23 23 24 26 26 27 29 29 28 29 29 28 26 24 22 21 20 21 21 21 20 21 21 21 20 19 18 17 15 14 14 13 12 12 12 12 12 12 12 12 12 13 15 16 17 17 19 20 21 21 21 19 16 14 13 13 15 17 17 18 20 23 25 26 26 26 26 25 24 26 27
24 24 25 24 23 24 25 24 25 26 27 27 28 28 27 25 22 21 20 20 21 21 21 21 21 21 21 21 20 18 18 17 15 15 15 14 14 14 14 14 14 14 14 14 14 15 16 17 18 19 20 20 21 21 21 20 17 12 10 13 16 17 18 19 21 24 25 25 26 25 24 25 27 28
24 24 25 24 23 22 23 24 24 25 25 26 26 26 26 24 22 21 21 21 22 22 23 22 21 21 21 21 20 19 19 19 18 17 16 15 15 15 15 16 16 16 16 15 15 15 16 17 18 19 19 20 20 20 20 20 18 14 10 11 14 16 17 18 20 21 23 24 24 24 26 27 28 29
21 22 23 23 22 21 22 23 24 24 24 24 24 24 23 22 22 22 23 24 24 25 24 22 21 20 21 21 21 20 21 21 20 19 17 15 15 15 16 16 17 17 17 17 16 17 16 17 18 19 19 20 20 20 19 19 18 14 11 12 14 15 17 18 19 19 20 21 22 23 25 27 27 29
20 21 23 24 24 23 23 24 24 24 24 24 24 23 22 22 22 23 24 25 25 25 24 22 21 20 21 21 21 21 22 22 22 20 18 16 16 16 16 16 17 17 18 18 17 17 16 17 19 19 19 19 19 19 18 18 17 14 13 14 15 16 17 19 19 18 18 18 18 20 23 24 25 27
21 22 23 24 26 26 24 23 24 24 24 24 24 24 23 23 23 24 25 26 26 25 24 23 21 21 21 21 21 21 22 23 23 21 19 18 17 17 17 16 17 17 17 17 17 16 16 18 20 20 19 19 18 18 17 17 17 16 15 15 15 16 17 18 18 18 18 17 17 19 21 22 24 27
23 23 24 24 26 26 25 24 24 25 25 24 24 25 25 25 25 25 26 26 26 26 25 24 23 23 23 23 22 22 23 24 24 22 20 19 18 18 17 16 16 16 16 17 17 17 17 19 20 20 19 18 17 17 17 16 16 16 16 15 15 15 15 15 16 17 17 17 17 17 18 18 20 22
25 25 25 25 24 24 24 25 26 25 25 25 25 26 27 28 27 27 27 27 27 26 26 25 25 25 24 24 23 24 24 25 25 23 21 20 20 19 17 16 16 16 16 16 17 17 18 19 20 19 18 17 16 16 16 14 14 15 15 14 13 12 12 12 12 13 15 16 18 18 18 16 16 16
24 25 26 27 26 24 23 25 26 26 25 25 26 27 28 29 30 30 30 29 28 27 26 26 26 26 25 25 25 25 24 25 26 26 23 22 22 21 19 18 17 16 16 16 17 17 18 19 19 18 17 16 16 15 14 13 13 13 13 12 11 9 9 9 9 10 12 15 16 17 17 16 16 15
Wind_Direction
226 234 242 244 245 246 251 260 264 264 267 276 286 290 293 299 304 307 311 319 331 337 333 328 325 320 311 305 305 304 300 295 292 291 292 292 292 295 298 301 305 307 302 290 283 284 281 272 266 264 266 265 259 258 263 260 255 261 277 291 301 319 338 346 348 350 353 355 360 8 20 61 94 94
231 234 241 244 246 247 251 259 263 264 265 272 281 287 291 296 302 306 308 314 326 334 332 329 326 322 318 314 310 309 306 301 298 296 295 293 292 293 297 298 297 300 301 294 285 280 275 270 267 267 268 265 257 253 255 253 248 255 270 281 291 311 335 347 348 348 352 350 350 353 3 85 111 109
237 240 243 244 245 251 257 260 265 269 271 277 285 290 294 296 301 306 307 309 319 327 326 325 323 319 318 317 315 314 312 307 305 304 303 302 300 299 302 303 300 295 294 292 285 274 267 268 273 275 273 263 252 246 247 245 243 248 260 274 285 302 326 344 348 348 350 344 339 336 324 129 131 126
241 245 246 246 249 259 269 270 272 280 287 291 293 294 295 296 299 303 304 305 311 318 320 320 319 316 315 316 315 313 310 307 306 308 309 308 308 307 306 306 304 299 292 286 279 267 261 265 275 279 272 257 245 245 245 238 237 244 252 264 277 291 313 336 345 345 347 343 334 324 294 198 150 141
239 241 243 245 250 261 272 273 276 285 291 292 293 294 295 296 297 299 302 304 307 313 316 318 318 316 315 315 313 310 306 303 302 306 310 311 311 311 309 306 305 302 295 285 274 266 262 265 271 270 264 256 246 245 245 235 231 237 243 252 264 274 290 320 338 343 346 340 329 317 281 227 171 155
244 247 246 247 251 260 269 275 280 284 284 284 285 286 290 296 298 300 303 305 308 312 316 317 316 315 312 310 307 303 302 302 301 304 309 312 312 309 307 307 305 302 300 291 278 270 266 265 266 256 250 252 246 239 238 232 229 232 235 242 252 258 268 295 327 339 344 337 324 303 265 229 190 168
259 259 261 263 265 270 273 274 276 279 277 278 280 281 289 298 300 301 303 305 308 311 315 317 315 313 311 308 304 298 294 295 298 300 303 306 307 305 302 302 302 300 299 295 287 280 272 267 263 253 247 249 247 242 236 228 226 228 231 236 243 249 254 268 302 326 337 337 319 288 252 221 196 177
257 253 258 264 265 270 276 276 275 277 279 281 283 285 293 299 301 302 303 304 304 306 309 313 312 311 310 308 307 303 297 292 291 294 297 298 297 296 296 295 296 297 297 297 295 289 281 274 267 260 254 248 244 243 239 229 224 225 228 232 238 243 248 254 274 301 320 327 303 268 245 223 200 182
261 260 265 268 266 267 272 275 278 280 280 282 283 286 292 297 300 302 301 301 302 303 305 308 309 309 308 307 306 305 302 297 292 290 290 290 289 288 289 289 290 292 294 296 298 295 288 279 272 268 262 253 245 241 236 229 225 225 224 226 231 237 241 244 253 270 289 299 275 251 235 223 204 187
263 267 272 275 275 274 271 270 274 280 283 283 281 282 288 294 298 299 300 300 301 303 304 305 307 307 307 306 305 304 304 303 301 297 292 286 281 278 281 284 285 288 293 297 298 297 292 283 276 270 262 257 253 248 240 230 227 228 225 223 228 233 234 234 238 246 258 262 256 249 233 221 208 191
259 262 266 271 277 278 272 266 266 274 281 280 276 280 288 293 295 295 297 298 300 302 304 305 306 306 307 310 310 308 309 308 306 304 300 294 285 277 276 277 278 283 292 298 300 297 292 287 282 274 265 260 258 255 248 239 234 233 230 228 232 233 229 228 230 232 238 242 243 242 234 225 213 194
252 255 261 271 279 277 268 260 261 268 273 269 266 276 288 289 290 291 292 295 298 301 305 307 310 313 316 320 320 317 317 316 312 309 306 304 299 290 281 276 277 281 288 294 297 294 290 290 285 275 272 270 266 262 253 243 237 236 236 235 236 234 226 226 230 229 228 229 234 240 234 227 216 201
258 262 267 274 281 277 264 257 261 266 267 261 260 273 284 285 284 285 286 289 294 300 308 316 323 327 330 333 334 332 331 329 325 321 316 311 308 304 297 287 282 283 287 290 291 289 291 296 293 278 268 261 258 259 256 246 237 237 240 237 235 233 228 227 230 228 228 225 227 237 233 224 218 206
265 269 271 273 279 276 264 256 257 260 261 260 264 273 279 277 277 278 279 286 297 309 321 332 337 338 340 342 343 341 339 336 333 330 326 320 315 312 311 309 298 290 288 287 284 290 302 312 314 302 285 262 249 251 256 246 236 242 250 245 239 235 228 225 222 218 223 223 223 231 230 221 216 209
266 268 267 268 272 271 262 255 255 256 257 259 266 272 271 269 271 274 280 293 307 318 327 337 341 341 341 342 345 343 335 330 330 331 330 328 324 319 318 317 310 302 299 296 290 294 304 310 315 315 311 294 266 249 247 236 230 239 259 263 254 242 231 227 224 218 219 221 216 222 226 218 213 209
264 264 263 264 268 268 262 257 256 256 256 260 265 267 264 266 272 276 285 297 306 317 327 334 337 337 335 338 342 340 330 322 320 322 325 327 328 326 321 316 310 305 304 304 301 301 304 307 311 313 315 311 291 261 242 231 227 234 252 264 259 248 238 236 234 225 223 223 215 213 219 216 209 208
258 258 260 262 266 267 261 257 256 256 256 259 260 260 262 268 272 274 283 294 302 317 326 329 333 332 328 330 334 335 330 324 316 313 315 317 320 324 323 319 318 314 307 303 302 302 304 305 307 308 308 309 297 269 244 235 236 243 255 260 254 249 248 246 238 228 227 229 220 210 212 213 207 205
254 254 257 261 264 264 258 253 252 251 251 252 253 255 262 268 268 268 275 284 297 316 324 326 329 327 321 321 324 326 327 326 319 312 310 312 313 315 316 315 318 320 316 312 308 306 305 306 309 310 305 303 295 272 251 242 245 251 258 259 255 253 253 250 242 233 231 230 222 211 208 207 206 208
252 253 256 257 259 259 252 243 240 242 245 248 251 255 261 264 262 262 265 272 288 308 319 325 328 324 317 314 315 317 319 322 321 316 314 313 311 310 310 310 312 314 316 318 316 313 312 313 313 313 307 302 293 272 252 246 252 256 253 251 253 256 255 250 243 237 232 228 222 215 210 204 201 206
249 251 253 254 255 254 248 239 236 237 241 246 250 254 259 259 257 255 256 261 276 296 312 324 328 324 316 310 307 308 310 313 316 316 316 316 313 310 308 307 308 310 313 317 318 316 317 316 314 312 307 302 293 273 248 239 244 255 253 246 246 250 249 244 241 238 235 234 231 224 218 213 206 202
247 247 249 251 252 249 244 240 237 234 237 244 250 253 255 254 253 251 249 253 268 287 305 320 327 325 318 309 302 299 301 305 308 311 312 314 313 312 311 308 307 309 313 317 320 323 325 323 320 319 314 308 299 279 256 239 236 244 253 251 247 247 245 241 241 239 237 238 238 232 224 219 214 207
245 245 246 246 245 244 242 242 240 235 235 242 248 252 253 251 252 250 244 246 263 281 299 314 324 325 321 313 302 294 293 296 300 303 307 311 311 311 310 308 308 310 313 318 324 329 330 329 333 337 334 327 319 299 273 248 236 236 243 249 251 250 247 245 242 236 234 236 238 235 227 219 218 214
244 244 243 242 240 241 242 244 246 241 236 238 246 251 251 251 253 252 244 246 260 276 292 307 318 322 323 319 308 295 288 289 292 294 296 301 303 304 304 305 305 307 310 317 323 327 328 330 338 344 343 336 330 323 302 266 243 238 239 242 248 252 250 249 244 230 226 231 236 233 227 222 220 215
242 242 241 241 239 240 241 244 250 248 238 237 244 248 250 253 257 254 248 250 261 274 287 302 314 319 323 323 316 302 288 282 283 284 286 289 292 294 296 297 297 298 305 312 317 323 328 332 333 328 323 321 319 318 315 299 268 249 241 238 241 244 243 245 244 234 223 225 229 229 225 224 223 216
242 241 241 241 241 242 244 246 251 252 242 236 240 247 254 258 259 254 251 256 264 274 287 301 313 318 321 324 321 309 293 282 277 275 276 279 281 283 286 288 286 289 298 301 305 318 327 330 332 328 319 311 303 300 299 298 287 271 259 249 245 245 242 238 237 235 227 222 223 224 221 221 223 218
246 245 244 242 243 247 250 251 254 256 248 238 239 248 257 259 255 252 254 260 267 275 287 302 312 315 319 323 322 314 303 291 282 276 273 271 271 273 276 277 276 275 277 281 294 315 324 326 329 328 322 316 308 297 286 277 273 274 275 271 262 258 253 244 237 233 227 222 221 221 218 218 223 221
252 252 249 247 249 251 253 255 256 255 249 242 242 247 254 256 253 252 256 261 267 275 286 299 309 313 316 321 321 314 305 300 297 292 280 268 263 267 268 265 260 257 259 275 297 314 321 323 325 323 319 314 310 304 293 277 263 258 264 270 270 267 261 251 242 237 231 226 224 222 219 218 220 221
252 253 251 251 253 254 254 256 256 252 247 245 245 247 250 252 251 251 255 260 266 273 283 296 306 311 314 319 318 309 301 302 304 302 287 266 259 262 262 253 245 245 254 276 299 311 317 321 322 320 318 313 307 305 303 290 267 253 251 259 265 266 263 255 248 242 236 231 227 224 223 221 219 217
252 255 255 254 255 255 253 251 247 244 242 243 243 243 244 246 247 249 254 259 264 271 281 293 304 308 312 317 315 306 301 304 306 301 285 263 257 258 253 241 234 239 254 275 296 307 313 317 319 318 316 313 307 302 303 301 284 261 250 249 255 261 263 260 255 248 240 234 230 227 227 227 225 222
249 250 250 249 249 249 249 246 241 237 236 237 239 240 239 240 243 247 252 258 264 271 279 291 301 305 309 315 313 304 302 306 305 297 279 257 252 250 239 228 229 240 259 276 292 303 309 313 316 317 316 312 307 303 302 302 296 279 260 250 250 253 257 258 258 254 247 238 231 229 229 229 229 230
251 248 248 246 244 244 245 244 239 233 230 231 234 236 237 238 242 246 252 257 263 270 277 288 299 301 305 312 311 303 304 309 304 292 273 248 240 235 224 222 229 243 261 276 289 300 306 310 315 318 318 314 309 305 301 294 289 285 274 260 252 250 250 254 258 259 255 246 237 232 229 229 229 229
254 251 250 250 246 240 238 237 234 230 227 227 230 233 235 237 240 245 250 256 262 268 276 286 295 296 300 308 308 302 307 312 303 285 266 234 221 219 222 230 238 246 257 272 287 297 303 310 316 319 318 315 310 304 298 291 286 283 279 272 263 254 250 251 256 260 260 253 245 238 233 230 230 230
252 249 247 247 245 239 234 233 232 229 227 227 229 231 234 236 239 243 248 254 261 268 275 284 290 291 294 303 303 299 304 310 297 276 255 226 217 223 234 245 254 259 261 270 283 293 300 308 316 319 318 315 310 303 296 292 290 286 279 274 270 263 257 256 257 259 258 254 249 243 238 234 232 232
253 250 248 246 242 239 237 235 234 232 230 229 230 232 234 236 239 242 247 253 261 267 273 280 285 285 287 295 296 290 289 293 285 267 249 236 231 236 247 258 265 270 274 279 284 290 296 302 310 316 317 313 309 304 298 293 291 287 278 269 264 262 262 261 260 260 259 257 251 247 243 240 237 235
254 252 252 249 241 236 236 237 238 237 236 234 233 234 235 237 240 244 248 254 260 266 270 275 279 280 281 287 290 282 271 270 272 267 257 251 249 251 258 265 272 275 279 285 288 290 293 299 307 315 317 315 311 306 300 295 291 284 273 263 259 257 255 254 255 256 258 259 256 249 245 244 242 238
256 251 251 250 243 237 235 236 238 240 240 238 237 236 237 238 241 244 249 254 258 262 267 271 275 275 274 279 285 278 264 259 263 264 261 257 254 257 261 266 273 278 281 286 289 289 291 298 307 315 320 321 318 314 309 303 294 283 269 259 257 255 253 252 252 250 250 253 256 253 249 249 248 244
259 252 250 250 244 239 237 237 239 241 243 242 240 239 239 240 242 245 248 252 254 258 262 266 269 269 268 274 281 274 261 256 259 260 260 257 254 256 262 268 275 280 284 287 287 286 290 298 305 312 319 321 318 316 314 310 301 288 269 255 252 253 255 255 255 252 249 249 252 254 256 257 256 252
265 257 252 250 245 239 237 237 238 239 240 239 239 239 239 239 241 242 244 246 248 252 256 260 263 263 263 270 277 272 257 252 255 257 257 257 256 260 267 272 276 280 283 285 285 285 290 297 301 307 316 319 317 315 314 311 311 306 282 259 250 248 249 251 251 251 250 250 251 253 256 256 254 252
273 264 256 251 247 243 240 239 239 239 238 236 236 237 237 236 235 235 235 236 240 246 251 254 257 258 259 266 274 269 255 248 250 253 254 257 260 263 268 271 274 277 280 281 282 285 289 294 297 303 313 316 315 313 312 310 314 318 304 276 260 251 249 248 246 244 246 249 250 251 251 249 248 248
275 268 260 255 252 247 243 241 240 240 239 238 237 237 235 231 229 230 232 235 240 246 250 251 252 253 256 264 271 267 254 247 247 250 252 256 259 261 264 268 271 274 277 278 280 284 288 291 293 300 310 314 313 312 310 308 310 311 298 281 272 262 255 252 248 245 246 248 248 248 248 246 244 243
276 269 263 259 257 253 247 242 240 241 241 240 239 237 233 230 230 233 237 242 245 247 248 247 248 250 254 262 268 264 253 246 246 248 251 254 256 258 261 266 271 274 277 278 280 284 286 287 289 296 306 311 311 309 306 304 303 298 284 276 274 268 259 254 248 244 244 246 247 248 248 246 243 241
277 275 269 262 258 256 253 248 243 242 242 242 241 238 234 232 234 238 242 245 247 247 246 245 244 246 251 258 263 259 250 245 245 246 249 252 253 256 260 266 272 275 276 278 280 280 280 282 286 293 302 308 307 304 301 300 298 294 287 280 276 268 259 252 245 239 237 239 240 240 240 239 237 236
273 273 273 268 261 258 255 251 248 246 244 243 242 240 237 236 238 241 245 248 249 249 247 245 243 245 249 255 259 257 250 245 243 245 247 249 250 252 257 265 272 275 275 276 277 274 272 277 284 290 299 304 303 299 298 298 297 296 293 288 280 270 259 249 240 234 232 232 231 230 232 236 238 238
270 267 267 267 267 263 257 251 249 249 248 246 245 244 242 241 241 243 247 250 252 252 250 247 244 245 248 252 255 256 253 248 244 244 246 247 247 249 254 262 269 273 273 273 272 268 268 274 281 287 296 302 300 295 295 297 298 298 296 291 283 271 259 248 238 231 228 227 224 222 222 226 232 236
272 267 264 264 265 266 264 259 255 253 251 250 249 248 247 246 247 248 249 251 253 254 253 250 246 244 246 249 252 255 256 252 246 242 243 244 244 246 251 259 265 268 268 268 268 265 264 271 278 285 294 298 295 292 292 295 299 300 295 289 282 271 258 249 241 232 229 227 224 223 222 222 225 228